| time (UTC) | temp F | wind direction | speed knots | gust knots | rain 1hr in | rain 24hr in | rain mn in | humidity % | barometer mb |
| 20260506231530 | 86 | 115 | 7.0 | 16.5 | 0.00 | 0.00 | 0.00 | 83 | 1006.3 |
| 20260506230027 | 88 | 111 | 8.7 | 17.4 | 0.00 | 0.00 | 0.00 | 81 | 1006.0 |
| 20260506224530 | 90 | 92 | 8.7 | 14.8 | 0.00 | 0.00 | 0.00 | 77 | 1005.9 |
| 20260506223028 | 90 | 99 | 8.7 | 14.8 | 0.00 | 0.00 | 0.00 | 77 | 1005.8 |
| 20260506221530 | 91 | 139 | 6.1 | 13.9 | 0.00 | 0.00 | 0.00 | 74 | 1005.9 |
| 20260506220037 | 92 | 77 | 7.8 | 14.8 | 0.00 | 0.00 | 0.00 | 72 | 1005.9 |
| 20260506214528 | 93 | 156 | 6.1 | 12.2 | 0.00 | 0.00 | 0.00 | 69 | 1005.8 |
| 20260506213032 | 94 | 188 | 4.3 | 10.4 | 0.00 | 0.00 | 0.00 | 66 | 1005.9 |
| 20260506211532 | 93 | 176 | 5.2 | 12.2 | 0.00 | 0.00 | 0.00 | 68 | 1005.8 |
| 20260506210032 | 93 | 177 | 7.0 | 15.6 | 0.00 | 0.00 | 0.00 | 69 | 1005.9 |
| 20260506204530 | 93 | 159 | 6.1 | 13.0 | 0.00 | 0.00 | 0.00 | 69 | 1006.1 |
| 20260506203029 | 92 | 166 | 6.1 | 14.8 | 0.00 | 0.00 | 0.00 | 70 | 1006.5 |
| 20260506201530 | 92 | 184 | 4.3 | 11.3 | 0.00 | 0.00 | 0.00 | 71 | 1006.8 |
| 20260506200030 | 91 | 159 | 7.0 | 13.0 | 0.00 | 0.00 | 0.00 | 72 | 1006.9 |
| 20260506194528 | 91 | 199 | 7.0 | 14.8 | 0.00 | 0.00 | 0.00 | 73 | 1007.2 |
| 20260506193028 | 91 | 120 | 6.1 | 16.5 | 0.00 | 0.00 | 0.00 | 73 | 1007.2 |
| 20260506191528 | 91 | 148 | 7.8 | 16.5 | 0.00 | 0.00 | 0.00 | 72 | 1007.3 |
| 20260506190030 | 91 | 157 | 6.1 | 14.8 | 0.00 | 0.00 | 0.00 | 74 | 1007.4 |
| 20260506184529 | 90 | 186 | 8.7 | 14.8 | 0.00 | 0.00 | 0.00 | 75 | 1007.5 |
| 20260506183030 | 90 | 202 | 7.8 | 21.7 | 0.00 | 0.00 | 0.00 | 76 | 1007.6 |
| 20260506181528 | 89 | 140 | 6.1 | 17.4 | 0.00 | 0.00 | 0.00 | 77 | 1007.9 |
| 20260506180030 | 88 | 177 | 8.7 | 16.5 | 0.00 | 0.00 | 0.00 | 79 | 1008.0 |
| 20260506174529 | 87 | 162 | 7.8 | 18.2 | 0.00 | 0.00 | 0.00 | 79 | 1008.2 |
| 20260506173028 | 86 | 149 | 7.0 | 16.5 | 0.00 | 0.00 | 0.00 | 81 | 1008.3 |
| 20260506171528 | 86 | 143 | 5.2 | 13.9 | 0.00 | 0.00 | 0.00 | 81 | 1008.5 |
| 20260506170028 | 86 | 155 | 7.0 | 14.8 | 0.00 | 0.00 | 0.00 | 81 | 1008.4 |
| 20260506164530 | 86 | 175 | 7.8 | 15.6 | 0.00 | 0.00 | 0.00 | 81 | 1008.5 |
| 20260506163032 | 85 | 117 | 7.0 | 15.6 | 0.00 | 0.00 | 0.00 | 82 | 1008.5 |
| 20260506161526 | 85 | 157 | 7.0 | 15.6 | 0.00 | 0.00 | 0.00 | 82 | 1008.4 |
| 20260506160028 | 84 | 166 | 4.3 | 10.4 | 0.00 | 0.00 | 0.00 | 85 | 1008.2 |
| 20260506154532 | 84 | 157 | 6.1 | 13.0 | 0.00 | 0.00 | 0.00 | 86 | 1008.2 |
| 20260506153029 | 83 | 177 | 5.2 | 11.3 | 0.00 | 0.00 | 0.00 | 87 | 1008.2 |
| 20260506151529 | 82 | 148 | 3.5 | 10.4 | 0.00 | 0.00 | 0.00 | 89 | 1008.2 |
| 20260506150027 | 81 | 144 | 5.2 | 8.7 | 0.00 | 0.00 | 0.00 | 89 | 1008.5 |
| 20260506144534 | 81 | 146 | 3.5 | 7.8 | 0.00 | 0.00 | 0.00 | 89 | 1008.7 |
| 20260506143031 | 81 | 162 | 5.2 | 9.6 | 0.00 | 0.00 | 0.00 | 90 | 1008.7 |
| 20260506141535 | 81 | 182 | 2.6 | 7.8 | 0.00 | 0.00 | 0.00 | 91 | 1008.8 |
| 20260506140030 | 80 | 163 | 3.5 | 7.8 | 0.00 | 0.00 | 0.00 | 91 | 1008.8 |
| 20260506134527 | 80 | 169 | 3.5 | 7.0 | 0.00 | 0.00 | 0.00 | 92 | 1008.7 |
| 20260506133028 | 79 | 198 | 4.3 | 9.6 | 0.00 | 0.00 | 0.00 | 92 | 1008.7 |
| 20260506131528 | 79 | 190 | 4.3 | 8.7 | 0.00 | 0.00 | 0.00 | 92 | 1008.4 |
| 20260506130030 | 79 | 165 | 3.5 | 9.6 | 0.00 | 0.00 | 0.00 | 93 | 1008.2 |
| 20260506124529 | 79 | 150 | 2.6 | 11.3 | 0.00 | 0.00 | 0.00 | 93 | 1007.7 |
| 20260506123029 | 79 | 144 | 3.5 | 8.7 | 0.00 | 0.00 | 0.00 | 94 | 1007.6 |
| 20260506121529 | 78 | 149 | 4.3 | 9.6 | 0.00 | 0.00 | 0.00 | 94 | 1007.4 |
| 20260506120031 | 78 | 131 | 5.2 | 13.0 | 0.00 | 0.00 | 0.00 | 94 | 1006.9 |
| 20260506114527 | 78 | 165 | 7.0 | 13.0 | 0.00 | 0.00 | 0.00 | 95 | 1006.7 |
| 20260506113030 | 78 | 127 | 5.2 | 13.9 | 0.00 | 0.00 | 0.00 | 95 | 1006.5 |
| 20260506111527 | 78 | 162 | 6.1 | 13.0 | 0.00 | 0.00 | 0.00 | 95 | 1006.2 |
| 20260506110027 | 78 | 126 | 7.0 | 13.0 | 0.00 | 0.00 | 0.00 | 95 | 1006.0 |
| 20260506104529 | 78 | 129 | 6.1 | 12.2 | 0.00 | 0.00 | 0.00 | 94 | 1005.9 |
| 20260506103030 | 78 | 130 | 7.0 | 13.9 | 0.00 | 0.00 | 0.00 | 94 | 1006.0 |
| 20260506101528 | 78 | 139 | 5.2 | 13.9 | 0.00 | 0.00 | 0.00 | 94 | 1006.0 |
| 20260506100027 | 78 | 134 | 7.0 | 13.0 | 0.00 | 0.00 | 0.00 | 94 | 1006.1 |
| 20260506094529 | 78 | 144 | 7.0 | 14.8 | 0.00 | 0.00 | 0.00 | 95 | 1005.8 |
| 20260506093033 | 78 | 167 | 6.1 | 13.0 | 0.00 | 0.00 | 0.00 | 95 | 1006.0 |
| 20260506091528 | 78 | 160 | 5.2 | 13.0 | 0.00 | 0.00 | 0.00 | 95 | 1006.2 |
| 20260506090028 | 77 | 151 | 5.2 | 10.4 | 0.00 | 0.00 | 0.00 | 95 | 1006.2 |
| 20260506084534 | 77 | 140 | 5.2 | 10.4 | 0.00 | 0.00 | 0.00 | 95 | 1006.3 |
| 20260506083030 | 77 | 119 | 5.2 | 11.3 | 0.00 | 0.00 | 0.00 | 95 | 1006.3 |
| 20260506081528 | 77 | 137 | 6.1 | 12.2 | 0.00 | 0.00 | 0.00 | 95 | 1006.5 |
| 20260506073028 | 78 | 189 | 7.0 | 12.2 | 0.00 | 0.00 | 0.00 | 94 | 1006.9 |
| 20260506071529 | 78 | 136 | 6.1 | 12.2 | 0.00 | 0.00 | 0.00 | 94 | 1006.9 |
| 20260506061529 | 78 | 130 | 7.0 | 12.2 | 0.00 | 0.00 | 0.00 | 93 | 1007.4 |
| 20260506044538 | 78 | 126 | 6.1 | 12.2 | 0.00 | 0.00 | 0.00 | 91 | 1008.6 |
| 20260506043027 | 79 | 144 | 8.7 | 14.8 | 0.00 | 0.00 | 0.00 | 91 | 1008.4 |
| 20260506041541 | 79 | 138 | 8.7 | 14.8 | 0.00 | 0.00 | 0.00 | 91 | 1008.5 |
| 20260506040033 | 79 | 130 | 7.8 | 14.8 | 0.00 | 0.00 | 0.00 | 90 | 1008.5 |
| 20260506034532 | 79 | 136 | 7.0 | 15.6 | 0.00 | 0.00 | 0.00 | 90 | 1008.3 |
| 20260506033028 | 79 | 112 | 7.8 | 13.0 | 0.00 | 0.00 | 0.00 | 90 | 1008.2 |
| 20260506031529 | 79 | 161 | 6.1 | 13.9 | 0.00 | 0.00 | 0.00 | 91 | 1008.0 |
| 20260506030028 | 79 | 163 | 6.1 | 13.9 | 0.00 | 0.00 | 0.00 | 91 | 1007.7 |
| 20260506024533 | 79 | 136 | 6.1 | 13.9 | 0.00 | 0.00 | 0.00 | 90 | 1007.4 |
| 20260506023030 | 79 | 132 | 7.0 | 15.6 | 0.00 | 0.00 | 0.00 | 90 | 1007.4 |
| 20260506021528 | 79 | 144 | 7.8 | 15.6 | 0.00 | 0.00 | 0.00 | 90 | 1007.1 |
| 20260506020030 | 79 | 136 | 7.8 | 16.5 | 0.00 | 0.00 | 0.00 | 90 | 1006.7 |
| 20260506014528 | 80 | 135 | 8.7 | 15.6 | 0.00 | 0.00 | 0.00 | 89 | 1006.5 |
| 20260506013032 | 80 | 135 | 7.0 | 19.1 | 0.00 | 0.00 | 0.00 | 88 | 1006.2 |
| 20260506011539 | 80 | 184 | 9.6 | 17.4 | 0.00 | 0.00 | 0.00 | 88 | 1006.0 |
| 20260506010030 | 80 | 134 | 8.7 | 19.1 | 0.00 | 0.00 | 0.00 | 87 | 1005.7 |
| 20260506004540 | 80 | 117 | 11.3 | 19.1 | 0.00 | 0.00 | 0.00 | 87 | 1005.7 |
| 20260506003031 | 81 | 142 | 12.2 | 20.0 | 0.00 | 0.00 | 0.00 | 86 | 1005.7 |
| 20260506001531 | 81 | 97 | 10.4 | 17.4 | 0.00 | 0.00 | 0.00 | 86 | 1005.6 |
| 20260506000028 | 81 | 119 | 9.6 | 21.7 | 0.00 | 0.00 | 0.00 | 86 | 1005.7 |
| 20260505234530 | 82 | 167 | 11.3 | 20.0 | 0.00 | 0.00 | 0.00 | 85 | 1005.6 |
| 20260505233033 | 82 | 150 | 8.7 | 21.7 | 0.00 | 0.00 | 0.00 | 84 | 1005.7 |